Regional Weather Roundup
Issued by NWS New Orleans/Baton Rouge, LA

Home | Current Version | Previous Version | Text Only | Print | Product List | Glossary On
Versions: 1 2 3 4 5 6 7 8 9 10 11 12 13 14 15 16 17 18 19 20 21 22 23 24 25 26 27 28 29 30 31 32 33 34 35 36 37 38 39 40 41 42 43 44 45 46 47 48 49 50
000
ASUS44 KLIX 050207
RWRLIX
NEW ORLEANS REGIONAL WEATHER ROUNDUP
NATIONAL WEATHER SERVICE NEW ORLEANS LA
900 PM CDT MON MAY 04 2015

NOTE: "FAIR" INDICATES FEW OR NO CLOUDS BELOW 12,000 FEET WITH NO
      SIGNIFICANT WEATHER AND/OR OBSTRUCTIONS TO VISIBILITY.
      SKY/WX - SKY CONDITION AND SIGNIFICANT WEATHER.
      TMP - AIR TEMPERATURE.     DP    - DEWPOINT TEMPERATURE.
      RH  - RELATIVE HUMIDITY.   PRES  - PRESSURE.
      HI  - HEAT INDEX.          WCI   - WIND CHILL INDEX.

*  THESE STATIONS ARE NOT NWS OR FAA STATIONS AND ARE NOT UNDER
   NWS QUALITY CONTROL.

LAZ038-040-048-061>063-065>067-069-050300-
SOUTHEAST LOUISIANA

CITY           SKY/WX    TMP DP  RH WIND       PRES   REMARKS
N.O. AUDUBON     N/A     76  64  67 MISG        N/A
N.O. INTL ARPT MOCLDY    74  62  66 SE10      30.15R
N.O. LAKEFRONT CLEAR     76  62  62 SE10      30.16R
SLIDELL        CLEAR     71  65  81 E5        30.16R
BATON ROUGE    CLOUDY    73  64  73 E8        30.14R
BOOTHVILLE     PTCLDY    72  62  71 SE7       30.16R
BELLE CHASSE   MOCLDY    74  61  63 SE10      30.15R
BOGALUSA*        N/A     74  64  70 SE3       30.18R
GALLIANO*      PTCLDY    76  64  65 SE5       30.15R
NEW ROADS*       N/A     74  64  72 E5        30.13R
GONZALES*        N/A     73  66  80 SE5       30.14R
HAMMOND*       CLEAR     72  63  73 SE5       30.18R
HOUMA*         MOCLDY    73  66  80 E12       30.14R
PORT FOURCHON* CLOUDY    77  64  65 SE20G28   30.16S

$$

MSZ070-080>082-050300-
SOUTHERN MISSISSIPPI

CITY           SKY/WX    TMP DP  RH WIND       PRES   REMARKS
MCCOMB         CLEAR     70  62  76 SE7       30.17R
GULFPORT       CLEAR     74  61  63 SE10      30.17R
BILOXI         CLEAR     75  61  60 SE7       30.17S
PASCAGOULA     CLEAR     64  62  93 CALM      30.19R

$$

COASTAL OBSERVATIONS
LAKE AND NEARSHORE STATIONS

STATION/POSITION TIME  TEMP    WIND        PRES    WAVE
                       AIR SEA DIR/SP/G            HT/PER
                 (UTC) (F)     (DEG/KT/KT) (MB)    (FT/S)
PASCAGOULA       0100   76     140/  7/ 12 1021.2
WAVELAND YACHT   0100   75 77  140/ 15/ 18 1021.2
GRAND ISLE       0100   75 77  130/  7/ 15 1020.3
SOUTHWEST PASS   0100      67  110/ 20/ 24 1020.9
NEW CANAL        0100   75 76  150/  5/ 12 1021.2
SHELL BEACH      0100   75 77  120/ 15/ 19 1020.4

OFFSHORE STATIONS

STATION/POSITION TIME  TEMP    WIND        PRES    WAVE
                       AIR SEA DIR/SP/G            HT/PER
                 (UTC) (F)     (DEG/KT/KT) (MB)    (FT/S)
64 S DAUPHIN ISL 0150   74 75  120/ 19/ 23 1021.6    6/ 7

$$



USA.gov is the U.S. government's official web portal to all federal, state and local government web resources and services.